Regional Weather Roundup
Issued by NWS Spokane, WA

Home | Current Version | Previous Version | Text Only | Print | Product List | Glossary On
Versions: 1 2 3 4 5 6 7 8 9 10 11 12 13 14 15 16 17 18 19 20 21 22 23 24 25 26 27 28 29 30 31 32 33 34 35 36 37 38 39 40 41 42 43 44 45 46 47 48 49 50
000
NZUS01 KOTX 201325
RWROTX

Eastern Washington/Northern Idaho Roundup
National Weather Service, Spokane WA
600 AM PDT FRI OCT 20 2017

Note: "fair" indicated few or no clouds below 12,000 feet with no
significant weather and/or obstructions to visibility.

...Northeast Washington and Northern Idaho Panhandle...

CITY           SKY/WX    TMP DP  RH WIND       PRES   REMARKS
Spokane Intl   LGT RAIN  42  41  96 SW20      29.51R
Spokane Downto CLOUDY    45  42  89 VRB6      29.53R
Coeur d Alene  LGT RAIN  43  41  93 SW5       29.53R
Deer Park      LGT RAIN  44  42  93 S9        29.51R
Sandpoint      RAIN      43  43 100 SW5       29.49S

...Southeast Washington and southern Idaho Panhandle...

CITY           SKY/WX    TMP DP  RH WIND       PRES   REMARKS
Walla Walla    CLOUDY    49  40  71 S10       29.59R
Pullman/Moscow LGT RAIN  42  38  85 SW9       29.58S
Lewiston       LGT RAIN  46  43  89 CALM      29.58S
Lowell           N/A     43  40  89 VRB3      29.62S
Grangeville    CLOUDY    36  36 100 W9        29.58S

...Columbia Basin...

CITY           SKY/WX    TMP DP  RH WIND       PRES   REMARKS
Ephrata        CLOUDY    41  36  82 SW6       29.49R
Moses Lake     CLOUDY    47  40  76 S10       29.51R
Pasco          CLOUDY    51  40  65 SW16G24   29.58R
Richland       CLOUDY    52  42  69 S18       29.57R
Hermiston      CLOUDY    49  41  74 SW12      29.60R
Pendleton      CLOUDY    45  40  82 S7        29.60R

...East Slopes Cascades...

CITY           SKY/WX    TMP DP  RH WIND       PRES   REMARKS
The Dalles     PTCLDY    48  43  82 E3        29.66R
Yakima         MOCLDY    42  37  82 W7        29.56R
Ellensburg     CLOUDY    44  36  73 NW15      29.53R
Stampede Pass  LGT SNOW  34  34 100 VRB7      29.57R FOG     WCI  28
Wenatchee      CLOUDY    43  39  86 N6        29.50R
Omak           CLOUDY    47  45  93 S8        29.46R
Chelan           N/A     46  36  66 S5          N/A
Sunnyside      CLOUDY    41  37  86 NE6       29.57R

...Southern British Columbia...

CITY           SKY/WX    TMP DP  RH WIND       PRES   REMARKS
Penticton      CLOUDY    52  45  76 S13       29.42R
Castlegar      LGT RAIN  45  45 100 CALM      29.44  FOG
Cranbrook      CLOUDY    43  41  93 S5        29.38S
Osoyoos          N/A     52  43  71 SE3         N/A
Creston          N/A     46  43  87 S3          N/A

...Western Montana...

CITY           SKY/WX    TMP DP  RH WIND       PRES   REMARKS
Kalispell      LGT RAIN  47  36  65 W6        29.40R
Libby            N/A     43  43 100 CALM      29.43S
Missoula       CLOUDY    51  34  52 NW15G24   29.42R

...Neighboring Cities...

CITY           SKY/WX    TMP DP  RH WIND       PRES   REMARKS
Seattle        MOCLDY    48  45  89 S9        29.63R
Portland       CLOUDY    49  46  90 NE5       29.72R
Boise          LGT RAIN  44  39  82 N14       29.62S
Great Falls    CLOUDY    59  17  19 S14       29.32F
Calgary        PTCLDY    39  30  70 S8        29.25F



USA.gov is the U.S. government's official web portal to all federal, state and local government web resources and services.